Total_Precipitation_Accumulation
1.62 1.81 2.27 2.01 1.85 1.79 1.82 1.86 1.73 1.75 1.91 2.04 2.09 2.10 2.14 2.17 2.19 2.26 2.32 2.39 2.51 2.62 2.55 2.48 2.35 2.46 2.48 2.39 2.12 1.85 1.68 1.69 1.64 1.51 1.34 1.34 1.46 1.68 2.06 2.22 2.07 1.51 1.48
1.32 1.65 2.07 1.87 1.77 1.76 1.71 1.68 1.64 1.66 1.85 1.98 2.09 2.06 2.10 2.04 2.02 2.03 2.20 2.44 2.64 2.64 2.53 2.33 2.18 2.30 2.32 2.25 1.96 1.76 1.62 1.68 1.65 1.67 1.50 1.28 1.53 1.92 2.23 2.28 2.31 1.60 1.54
0.99 1.32 1.50 1.65 1.58 1.63 1.68 1.70 1.87 1.94 2.00 2.00 2.05 1.98 1.95 1.92 1.94 1.99 2.17 2.31 2.40 2.21 2.13 2.09 2.08 2.05 2.02 1.96 1.81 1.68 1.63 1.57 1.69 1.91 2.05 1.39 1.23 1.90 2.14 2.17 2.04 1.54 1.39
0.80 1.00 1.14 1.33 1.31 1.34 1.53 1.72 1.93 2.04 2.05 2.05 2.01 1.93 1.84 1.91 1.92 1.92 1.90 1.93 1.89 1.68 1.64 1.74 1.86 1.86 1.82 1.66 1.60 1.64 1.65 1.67 1.93 2.34 2.42 1.64 1.22 1.56 1.90 1.83 1.65 1.43 1.26
0.70 0.85 1.08 1.17 1.14 1.14 1.30 1.50 1.76 1.93 1.91 1.90 1.85 1.82 1.84 1.83 1.79 1.77 1.72 1.71 1.66 1.60 1.51 1.55 1.74 1.85 1.76 1.55 1.51 1.60 1.64 1.76 2.14 2.29 2.01 1.89 1.78 1.76 1.83 1.76 1.61 1.44 1.29
0.50 0.64 0.90 1.07 0.99 1.03 1.28 1.46 1.56 1.66 1.70 1.70 1.74 1.83 1.83 1.78 1.78 1.68 1.58 1.56 1.59 1.55 1.46 1.49 1.68 1.78 1.71 1.55 1.51 1.68 1.80 2.05 2.18 1.79 1.63 1.65 1.76 1.89 1.85 1.90 1.86 1.64 1.47
0.38 0.55 0.80 1.06 0.97 1.00 1.19 1.38 1.56 1.71 1.76 1.74 1.79 1.70 1.72 1.72 1.63 1.52 1.40 1.42 1.45 1.42 1.33 1.36 1.53 1.67 1.72 1.69 1.65 1.81 1.92 2.14 1.99 1.64 1.55 1.74 1.65 1.61 1.75 1.95 2.14 1.96 1.66
0.30 0.43 0.61 0.92 1.02 1.08 1.17 1.34 1.60 1.71 1.77 1.72 1.61 1.48 1.47 1.44 1.38 1.32 1.25 1.31 1.32 1.20 1.14 1.22 1.37 1.39 1.57 1.76 1.82 1.89 1.91 1.86 1.55 1.50 1.44 1.51 1.23 1.34 1.64 1.88 2.05 1.96 1.69
0.31 0.35 0.53 0.76 0.92 1.01 1.17 1.32 1.42 1.37 1.36 1.31 1.26 1.31 1.38 1.38 1.28 1.22 1.20 1.29 1.23 1.19 1.19 1.27 1.35 1.32 1.53 1.74 1.71 1.69 1.85 1.74 1.42 1.50 1.39 1.54 1.41 1.56 1.86 1.96 1.90 1.92 1.72
0.55 0.54 0.68 0.76 0.84 0.91 1.02 1.13 1.18 1.22 1.20 1.17 1.18 1.20 1.23 1.29 1.27 1.23 1.22 1.34 1.19 1.12 1.16 1.35 1.47 1.42 1.56 1.66 1.70 1.84 2.00 1.72 1.35 1.36 1.44 1.34 1.44 1.76 2.13 2.16 2.06 2.04 1.91
0.92 0.85 0.77 0.77 0.75 0.79 0.84 0.92 1.11 1.17 1.16 1.14 1.14 1.12 1.19 1.27 1.18 1.23 1.29 1.47 1.34 1.25 1.21 1.36 1.55 1.77 1.80 1.71 1.89 2.06 1.99 1.75 1.76 1.64 1.61 1.38 1.51 1.93 2.27 2.25 2.24 2.29 2.15
1.12 1.08 1.01 0.98 0.80 0.76 0.79 1.00 1.14 1.01 1.09 1.16 1.20 1.18 1.30 1.42 1.47 1.35 1.62 1.74 1.70 1.70 1.62 1.68 1.86 1.93 1.84 1.92 2.45 2.58 1.96 1.91 1.83 1.80 1.94 1.74 1.85 2.25 2.54 2.38 2.27 2.37 2.28
1.30 1.06 1.11 1.31 1.20 1.08 1.17 1.12 1.12 1.17 1.33 1.34 1.25 1.30 1.49 1.30 1.23 1.38 1.56 1.72 1.82 1.91 2.05 2.31 2.50 2.21 2.31 2.63 2.86 2.63 2.05 1.79 1.82 1.75 2.02 2.05 2.14 2.57 2.93 2.74 2.52 2.50 2.45
1.48 1.17 1.09 1.23 1.45 1.43 1.34 1.28 1.21 1.18 1.29 1.35 1.50 1.47 1.60 1.59 1.58 1.66 1.95 2.05 2.19 2.32 2.70 2.78 3.14 2.88 2.62 2.55 2.67 2.54 2.30 2.20 2.00 2.11 2.32 1.97 2.12 2.67 3.21 3.20 3.02 2.84 2.66
1.77 1.54 1.37 1.28 1.48 1.56 1.56 1.50 1.36 1.36 1.39 1.58 1.75 1.75 1.82 1.94 2.15 2.29 2.28 2.50 2.43 2.49 2.72 3.12 3.14 3.34 3.40 3.38 3.18 2.82 2.75 2.59 2.34 2.44 2.52 2.39 2.31 2.57 3.13 3.55 3.44 3.19 2.88
2.22 2.06 1.78 1.55 1.50 1.59 1.65 1.71 1.76 1.70 1.89 1.95 2.08 2.13 2.30 2.48 2.70 2.95 2.94 2.98 2.71 2.69 2.98 3.26 3.38 3.92 3.89 3.76 3.30 3.03 2.89 2.80 2.55 2.44 2.62 2.70 2.37 2.34 2.77 3.52 3.81 3.61 3.37
2.51 2.49 2.34 2.16 2.10 2.18 2.34 2.31 2.18 2.30 2.38 2.51 2.65 2.68 2.73 2.81 3.10 3.31 3.24 3.11 3.02 2.98 3.21 3.47 3.65 3.87 3.70 3.56 3.41 3.24 3.11 2.88 2.49 2.48 2.52 2.72 2.57 2.39 2.67 3.11 3.57 3.67 3.73
2.62 2.96 2.99 2.78 2.91 3.03 3.18 3.16 2.92 2.89 2.90 2.96 2.96 2.96 2.96 3.06 3.24 3.62 3.40 3.21 3.50 3.27 3.46 3.98 4.03 4.05 4.05 3.82 3.65 3.35 3.16 2.98 2.50 2.38 2.37 2.65 3.00 2.58 2.67 3.03 3.26 3.38 3.86
2.77 3.25 3.45 3.54 3.71 3.72 3.73 3.71 3.64 3.50 3.38 3.16 3.18 3.16 3.02 3.01 3.12 3.46 3.37 3.43 3.46 3.69 3.76 3.51 4.12 4.23 4.16 3.96 3.38 3.16 2.81 2.66 2.56 2.28 2.40 2.50 2.86 2.68 2.66 2.74 3.02 3.23 3.83
3.18 3.57 4.04 4.22 4.29 4.06 3.93 3.90 3.76 3.52 3.38 3.22 3.21 3.15 2.92 2.94 2.99 3.44 3.28 3.26 3.34 3.71 3.76 3.76 4.15 4.16 3.93 3.91 3.13 2.86 2.69 2.31 2.30 2.36 2.21 2.38 2.55 2.21 2.36 2.67 3.15 2.83 3.10
3.72 3.98 4.27 4.64 4.75 4.52 4.47 4.42 4.30 4.00 3.85 3.52 3.11 2.74 2.68 2.66 2.83 3.31 3.06 3.39 3.32 3.46 3.54 3.54 3.84 3.97 3.65 3.72 3.68 3.19 2.51 2.10 2.07 2.08 2.13 2.26 2.25 2.32 2.78 3.24 3.37 3.28 3.11
3.55 4.05 4.38 4.37 4.24 3.98 4.10 4.40 4.62 4.60 4.11 3.51 3.15 3.01 2.68 2.60 2.70 2.89 3.13 3.05 3.09 3.28 3.31 3.37 3.69 3.68 3.30 3.43 3.69 3.75 3.01 2.64 2.16 1.67 1.99 2.11 2.18 2.51 2.69 2.84 3.18 3.48 3.55
2.98 3.50 3.63 3.49 3.42 3.27 3.34 3.67 3.89 4.12 3.86 3.52 3.23 2.99 2.69 2.59 2.55 2.64 2.81 2.85 2.88 2.78 3.01 3.26 3.24 3.28 3.23 3.20 3.26 3.67 3.36 2.93 2.45 1.91 1.77 1.88 2.19 2.45 2.45 2.63 2.68 2.96 3.19
2.12 2.37 2.56 2.75 2.83 2.84 2.88 3.09 3.28 3.44 3.40 3.25 3.15 2.91 2.63 2.37 2.33 2.42 2.47 2.46 2.51 2.49 2.79 2.59 2.65 2.98 3.23 3.10 3.01 2.98 3.04 3.13 3.00 2.39 1.91 1.83 2.05 2.21 2.22 2.17 2.39 2.70 2.78
1.83 2.04 2.26 2.56 2.71 2.79 2.77 2.86 3.07 3.35 3.36 3.12 2.90 2.84 2.66 2.43 2.21 2.13 2.27 2.31 2.30 2.26 2.37 2.45 2.77 2.77 2.90 2.91 2.89 2.89 3.00 3.01 2.83 2.65 2.31 2.13 2.06 1.87 1.88 2.02 2.21 2.53 2.68
1.66 1.89 2.12 2.36 2.35 2.46 2.54 2.55 2.60 2.77 2.90 2.76 2.57 2.51 2.33 2.16 2.02 1.97 2.05 2.27 2.21 2.16 2.28 2.38 2.49 2.51 2.61 2.71 2.69 2.68 2.91 2.77 2.69 2.79 2.50 2.36 2.26 1.95 1.91 1.99 2.10 2.32 2.45